Location: Fort Collins
(40.5850°N, 105.0840°W)
Time: 01:07:56
(UTC-06:00)

Cosmos 2297 Rocket - Visible Passes

Search period start: 25 September 2016 00:00
Search period end: 05 October 2016 00:00
Orbit: 839 x 844 km, 71.0° (Epoch: 24 September)

Date Brightness Start Highest point End Pass type
(mag) Time Alt. Az. Time Alt. Az. Time Alt. Az.
25 Sep 3.6 04:25:25 18° SSE 04:28:58 35° ESE 04:34:02 10° NE visible
25 Sep 2.9 06:07:56 10° WSW 06:12:59 33° WNW 06:18:05 10° N visible
26 Sep 3.6 04:11:41 25° SE 04:13:54 33° ESE 04:18:54 10° NE visible
26 Sep 2.9 05:53:33 14° WSW 05:57:52 35° WNW 06:03:01 10° N visible
27 Sep 3.6 03:57:49 29° ESE 03:58:50 31° ESE 04:03:45 10° NE visible
27 Sep 2.8 05:39:40 21° WSW 05:42:45 37° WNW 05:47:58 10° N visible
28 Sep 3.7 03:43:50 30° ESE 03:43:50 30° ESE 03:48:35 10° NE visible
28 Sep 2.7 05:25:41 29° W 05:27:38 38° WNW 05:32:55 10° N visible
29 Sep 4.0 03:29:44 26° E 03:29:44 26° E 03:33:25 10° NE visible
29 Sep 2.6 05:11:35 38° W 05:12:31 40° WNW 05:17:51 10° N visible
30 Sep 4.3 03:15:34 22° ENE 03:15:34 22° ENE 03:18:16 10° NE visible
30 Sep 2.6 04:57:24 42° WNW 04:57:25 42° WNW 05:02:47 10° N visible
01 Oct 4.6 03:01:19 17° ENE 03:01:19 17° ENE 03:03:06 10° NE visible
01 Oct 2.8 04:43:09 42° NW 04:43:09 42° NW 04:47:44 10° NNE visible
02 Oct 4.9 02:47:00 14° ENE 02:47:00 14° ENE 02:47:55 10° NE visible
02 Oct 3.1 04:28:49 37° NNW 04:28:49 37° NNW 04:32:40 10° NNE visible
03 Oct 5.1 02:32:38 10° NE 02:32:38 10° NE 02:32:43 10° NE visible
03 Oct 3.5 04:14:27 31° N 04:14:27 31° N 04:17:35 10° NNE visible
04 Oct 3.8 04:00:02 26° N 04:00:02 26° N 04:02:31 10° NNE visible
